Location: Les Coudrans
(46.1056°N, 1.1158°W)
Time: 09:03:15
(UTC+00:00)

Cosmos 1844 Rocket - Visible Passes

Search period start: 16 June 2021 00:00
Search period end: 26 June 2021 00:00
Orbit: 823 x 845 km, 71.0° (Epoch: 15 June)

Date Brightness Start Highest point End Pass type
(mag) Time Alt. Az. Time Alt. Az. Time Alt. Az.
16 Jun 3.8 20:36:54 10° NNW 20:41:58 32° NE 20:47:00 10° ESE visible
16 Jun 3.3 22:20:38 10° NW 22:26:02 47° WSW 22:29:19 23° S visible
17 Jun 3.2 22:03:21 10° NW 22:08:51 51° WSW 22:12:33 20° S visible
18 Jun 3.1 21:46:05 10° NW 21:51:38 56° WSW 21:55:50 17° S visible
19 Jun 3.0 21:28:49 10° NNW 21:34:25 61° WSW 21:39:09 15° S visible
20 Jun 3.0 21:11:34 10° NNW 21:17:12 67° WSW 21:22:30 12° SSE visible
21 Jun 2.9 20:54:19 10° NNW 21:00:00 73° WSW 21:05:38 10° SSE visible
21 Jun 5.2 22:41:40 10° W 22:42:49 11° W 22:43:59 10° WSW visible
22 Jun 2.9 20:37:04 10° NNW 20:42:46 79° WSW 20:48:26 10° SSE visible
22 Jun 5.1 22:23:40 10° WNW 22:25:40 12° W 22:27:41 10° WSW visible
23 Jun 5.1 22:05:58 10° WNW 22:08:32 13° W 22:11:05 10° WSW visible
24 Jun 5.0 21:48:23 10° WNW 21:51:22 15° W 21:54:22 10° SW visible
25 Jun 5.0 21:30:52 10° WNW 21:34:13 16° W 21:37:34 10° SW visible
